Date Time,Air Temp,Sky Temp,Clarity,Light Level,Rain Sensor,Readings
2009-10-27 00:00:02,19.2,9.5,9.7,0.0,2.5,111
2009-10-27 00:05:02,19.2,9.4,9.8,0.0,2.4,112
2009-10-27 00:10:02,19.2,9.5,9.7,0.0,2.2,112
2009-10-27 00:15:02,19.3,9.3,9.9,0.0,2.3,111
2009-10-27 00:20:02,19.6,9.0,10.6,0.0,2.7,112
2009-10-27 00:25:02,19.3,9.0,10.2,0.0,2.7,111
2009-10-27 00:30:02,19.2,9.3,10.0,0.0,2.6,111
2009-10-27 00:35:02,19.3,8.7,10.6,0.0,2.9,112
2009-10-27 00:40:02,19.3,9.4,9.8,0.0,2.9,111
2009-10-27 00:45:02,19.3,9.3,10.0,0.0,4.3,112
2009-10-27 00:50:02,19.3,9.9,9.5,0.0,4.1,111
2009-10-27 00:55:02,19.3,9.7,9.6,0.0,4.6,111
2009-10-27 01:00:02,19.4,11.4,8.0,0.0,7.8,112
2009-10-27 01:05:02,19.5,10.9,8.6,0.0,5.2,111
2009-10-27 01:10:02,19.4,10.8,8.7,0.0,3.6,111
2009-10-27 01:15:02,19.4,10.4,9.0,0.0,3.0,112
2009-10-27 01:20:02,19.3,9.5,9.8,0.0,2.8,112
2009-10-27 01:25:02,19.3,9.4,9.9,0.0,2.7,111
2009-10-27 01:30:02,19.3,9.5,9.8,0.0,2.7,112
2009-10-27 01:35:02,19.4,9.6,9.8,0.0,2.7,112
2009-10-27 01:40:02,19.4,9.4,10.0,0.0,3.1,111
2009-10-27 01:45:02,19.4,9.5,9.9,0.0,3.3,112
2009-10-27 01:50:02,19.4,9.3,10.1,0.0,3.5,111
2009-10-27 01:55:02,19.4,9.1,10.3,0.0,3.6,111
2009-10-27 02:00:02,19.5,9.4,10.1,0.0,3.8,112
2009-10-27 02:05:02,19.2,9.3,9.9,0.0,4.1,111
2009-10-27 02:10:02,19.6,9.2,10.3,0.0,3.4,112
2009-10-27 02:15:02,19.6,9.3,10.3,0.0,3.1,111
2009-10-27 02:20:02,19.6,9.5,10.0,0.0,3.3,111
2009-10-27 02:25:02,19.6,9.3,10.3,0.0,3.4,112
2009-10-27 02:30:02,19.6,9.4,10.2,0.0,3.2,112
2009-10-27 02:35:02,19.6,9.4,10.1,0.0,3.4,111
2009-10-27 02:40:02,19.6,9.6,9.9,0.0,3.3,112
2009-10-27 02:45:02,19.6,9.5,10.1,0.0,3.4,112
2009-10-27 02:50:02,19.6,9.8,9.8,0.0,3.0,111
2009-10-27 02:55:02,19.6,10.2,9.4,0.0,3.0,112
2009-10-27 03:00:02,19.7,10.3,9.4,0.0,5.0,111
2009-10-27 03:05:02,19.7,12.1,7.6,0.0,7.5,111
2009-10-27 03:10:02,19.8,12.3,7.6,0.0,5.7,111
2009-10-27 03:15:02,19.8,13.0,6.8,0.0,6.4,112
2009-10-27 03:20:02,19.9,13.4,6.4,0.0,6.9,110
2009-10-27 03:25:02,19.9,13.5,6.4,0.0,6.6,112
2009-10-27 03:30:02,20.0,14.4,5.6,0.0,7.4,112
2009-10-27 03:35:02,20.1,14.5,5.6,0.0,8.2,111
2009-10-27 03:40:02,20.1,14.7,5.4,0.0,6.8,111
2009-10-27 03:45:02,20.1,15.2,4.9,0.0,6.7,111
2009-10-27 03:50:02,20.1,14.8,5.3,0.0,6.3,112
2009-10-27 03:55:02,20.1,14.8,5.3,0.0,5.9,111
2009-10-27 04:00:02,20.1,16.1,4.0,0.0,9.1,112
2009-10-27 04:05:02,20.3,17.9,2.4,0.0,12.6,111
2009-10-27 04:10:02,20.4,15.1,5.3,0.0,8.1,111
2009-10-27 04:15:02,20.3,15.0,5.3,0.0,6.6,112
2009-10-27 04:20:02,20.2,13.6,6.6,0.0,7.0,111
2009-10-27 04:25:02,20.2,15.8,4.3,0.0,5.7,112
2009-10-27 04:30:02,20.1,14.8,5.3,0.0,4.2,111
2009-10-27 04:35:02,20.1,11.2,8.9,0.0,3.3,111
2009-10-27 04:40:02,20.1,11.6,8.5,0.0,6.7,111
2009-10-27 04:45:02,20.2,13.3,6.9,0.0,9.9,112
2009-10-27 04:50:02,20.2,12.6,7.6,0.0,5.2,111
2009-10-27 04:55:02,20.1,12.9,7.2,0.0,4.9,111
2009-10-27 05:00:02,20.1,13.6,6.5,0.0,5.8,111
2009-10-27 05:05:02,20.1,13.4,6.7,0.0,4.5,112
2009-10-27 05:10:02,20.0,12.0,8.0,0.0,3.2,112
2009-10-27 05:15:02,19.9,10.6,9.3,0.0,3.1,111
2009-10-27 05:20:02,19.9,9.6,10.3,0.0,3.0,111
2009-10-27 05:25:02,19.9,10.1,9.8,0.0,2.7,112
2009-10-27 05:30:02,20.0,10.5,9.4,0.0,3.3,112
2009-10-27 05:35:02,20.1,10.5,9.5,0.0,5.5,112
2009-10-27 05:40:02,20.1,10.8,9.3,0.0,3.9,111
2009-10-27 05:45:02,20.1,10.6,9.5,0.0,3.1,112
2009-10-27 05:50:02,20.1,10.4,9.7,0.0,3.2,111
2009-10-27 05:55:02,20.1,10.4,9.6,0.2,2.8,112
2009-10-27 06:00:02,20.1,10.6,9.4,0.3,2.8,111
2009-10-27 06:05:02,20.4,10.9,9.4,0.7,2.7,112
2009-10-27 06:10:02,20.1,11.0,9.1,1.4,2.7,111
2009-10-27 06:15:02,20.1,11.0,9.1,2.7,2.7,112
2009-10-27 06:20:02,20.2,10.8,9.3,5.7,2.7,111
2009-10-27 06:25:02,20.2,10.5,9.7,11.1,2.7,112
2009-10-27 06:30:02,20.2,10.3,10.0,17.3,2.7,111
2009-10-27 06:35:02,20.3,9.7,10.5,23.2,2.6,112
2009-10-27 06:40:02,20.3,9.7,10.6,26.7,2.5,111
2009-10-27 06:45:02,20.3,9.7,10.6,28.2,2.4,112
2009-10-27 06:50:02,20.3,9.8,10.5,28.9,2.3,112
2009-10-27 06:55:02,20.3,9.9,10.4,29.8,2.3,111
2009-10-27 07:00:02,20.3,10.1,10.2,30.5,2.3,112
2009-10-27 07:05:02,20.3,10.0,10.3,31.1,2.3,112
2009-10-27 07:10:02,20.3,10.1,10.2,31.5,2.3,111
2009-10-27 07:15:02,20.3,9.9,10.4,31.8,2.3,112
2009-10-27 07:20:02,20.3,9.2,11.1,32.0,2.4,111
2009-10-27 07:25:02,20.3,9.3,11.0,32.0,3.0,111
2009-10-27 07:30:02,20.3,8.7,11.6,32.1,5.3,112
2009-10-27 07:35:02,20.3,9.1,11.2,32.1,3.6,111
2009-10-27 07:40:02,20.2,9.8,10.4,32.1,2.8,112
2009-10-27 07:45:02,20.2,9.3,10.9,32.2,2.9,111
2009-10-27 07:50:02,20.3,9.7,10.6,32.2,2.7,112
2009-10-27 07:55:02,20.3,10.0,10.4,32.2,2.7,112
2009-10-27 08:00:02,20.4,10.5,9.9,32.2,2.7,111
2009-10-27 08:05:02,20.5,10.7,9.9,32.2,2.6,112
2009-10-27 08:10:02,20.5,10.1,10.5,32.3,2.3,112
2009-10-27 08:15:02,20.6,10.1,10.5,32.4,2.3,112
2009-10-27 08:20:02,20.7,10.3,10.4,32.4,2.3,111
2009-10-27 08:25:02,20.7,10.6,10.2,32.3,2.3,112
2009-10-27 08:30:02,21.1,10.3,10.8,32.4,2.3,111
2009-10-27 08:35:02,20.9,10.2,10.7,32.4,2.3,112
2009-10-27 08:40:02,21.0,10.3,10.7,32.4,2.3,112
2009-10-27 08:45:02,21.1,9.5,11.6,32.4,2.3,111
2009-10-27 08:50:02,21.2,10.0,11.2,32.4,2.3,112
2009-10-27 08:55:02,21.1,10.3,10.8,32.4,2.3,111
2009-10-27 09:00:02,21.1,9.7,11.5,32.4,2.3,112
2009-10-27 09:05:02,21.2,9.3,12.0,32.4,2.3,112
2009-10-27 09:10:02,21.4,6.7,14.7,32.5,2.3,111
2009-10-27 09:15:02,21.5,5.0,16.5,32.5,2.3,112
2009-10-27 09:20:02,21.6,7.7,13.9,32.5,2.3,111
2009-10-27 09:25:02,21.6,8.9,12.8,32.5,2.3,112
2009-10-27 09:30:02,21.6,9.4,12.2,32.5,2.3,112
2009-10-27 09:35:02,21.4,9.8,11.7,32.5,2.3,111
2009-10-27 09:40:02,21.4,9.9,11.5,32.4,2.3,112
2009-10-27 09:45:02,21.4,9.8,11.6,32.4,2.3,111
2009-10-27 09:50:02,21.3,9.5,11.8,32.4,2.3,112
2009-10-27 09:55:02,21.2,9.5,11.6,32.4,2.3,111
2009-10-27 10:00:02,21.1,9.8,11.3,32.5,2.3,111
2009-10-27 10:05:02,21.1,9.6,11.5,32.4,2.3,112
2009-10-27 10:10:02,21.1,9.3,11.8,32.5,2.3,112
2009-10-27 10:15:02,21.2,9.5,11.6,32.5,2.3,111
2009-10-27 10:20:02,21.2,9.4,11.8,32.5,2.3,111
2009-10-27 10:25:02,21.2,9.2,12.0,32.5,2.3,112
2009-10-27 10:30:02,21.3,8.6,12.7,32.5,2.3,111
2009-10-27 10:35:02,21.3,8.5,12.8,32.5,2.2,112
2009-10-27 10:40:02,21.2,8.2,13.1,32.5,2.3,112
2009-10-27 10:45:02,21.2,8.3,12.9,32.5,2.3,111
2009-10-27 10:50:02,21.3,8.2,13.1,32.5,2.3,112
2009-10-27 10:55:02,21.4,8.5,12.8,32.5,2.3,111
2009-10-27 11:00:02,21.5,8.3,13.2,32.5,2.3,111
2009-10-27 11:05:02,21.5,8.9,12.6,32.5,2.2,111
2009-10-27 11:10:02,21.5,8.3,13.2,32.5,2.3,112
2009-10-27 11:15:02,21.6,7.6,13.9,32.5,2.3,111
2009-10-27 11:20:02,21.6,7.5,14.1,32.5,2.3,112
2009-10-27 11:25:02,21.7,7.0,14.7,32.6,2.3,111
2009-10-27 11:30:02,21.9,6.5,15.4,32.6,2.3,112
2009-10-27 11:35:02,23.1,2.0,21.1,32.6,2.3,111
2009-10-27 11:40:02,26.3,-2.7,29.0,32.6,2.3,112
2009-10-27 11:45:02,27.4,-7.1,34.5,32.6,1.6,111
2009-10-27 11:50:02,28.3,-7.7,36.0,32.6,1.1,112
2009-10-27 11:55:02,28.9,-7.8,36.7,32.6,1.4,111
2009-10-27 12:00:02,29.3,-7.6,36.9,32.6,1.6,112
2009-10-27 12:05:02,29.5,-7.5,37.1,32.6,1.7,111
2009-10-27 12:10:02,29.7,-7.7,37.4,32.6,1.8,112
2009-10-27 12:15:02,29.7,-8.3,38.0,32.6,1.9,111
2009-10-27 12:20:02,29.6,-7.9,37.5,32.6,1.9,112
2009-10-27 12:25:02,29.7,-8.1,37.8,32.6,1.9,111
2009-10-27 12:30:02,29.6,-8.5,38.1,32.6,2.0,112
2009-10-27 12:35:02,29.4,-7.6,37.1,32.6,1.9,112
2009-10-27 12:40:02,29.6,-8.4,38.0,32.6,1.9,112
2009-10-27 12:45:02,29.8,-7.3,37.1,32.6,2.0,111
2009-10-27 12:50:02,30.1,-6.9,37.0,32.6,2.1,112
2009-10-27 12:55:02,29.8,-7.1,37.0,32.6,2.2,111
2009-10-27 13:00:02,30.5,-8.2,38.7,32.6,2.3,112
2009-10-27 13:05:02,30.3,-7.5,37.8,32.6,2.3,111
2009-10-27 13:10:02,30.6,-7.8,38.3,32.6,2.3,112
2009-10-27 13:15:02,30.5,-8.9,39.4,32.6,2.3,112
2009-10-27 13:20:02,30.1,-8.6,38.6,32.6,2.3,112
2009-10-27 13:25:02,29.3,-8.7,37.9,32.6,2.2,111
2009-10-27 13:30:02,29.7,-8.9,38.6,32.6,2.2,112
2009-10-27 13:35:02,29.3,-9.2,38.5,32.6,2.1,112
2009-10-27 13:40:02,29.3,-8.8,38.1,32.6,2.0,112
2009-10-27 13:45:02,29.3,-8.7,38.0,32.6,2.0,111
2009-10-27 13:50:02,29.4,-8.3,37.7,32.6,2.0,112
2009-10-27 13:55:02,29.5,-8.3,37.8,32.6,2.1,112
2009-10-27 14:00:02,29.7,-8.1,37.8,32.6,2.2,111
2009-10-27 14:05:02,30.0,-8.1,38.1,32.6,2.3,112
2009-10-27 14:10:02,30.3,-7.6,37.9,32.6,2.3,112
2009-10-27 14:15:02,30.2,-10.9,41.1,32.5,2.3,111
2009-10-27 14:20:02,28.9,-9.2,38.1,32.6,1.9,112
2009-10-27 14:25:02,28.3,-8.7,37.0,32.6,1.8,111
2009-10-27 14:30:02,29.1,-7.9,37.0,32.6,1.9,112
2009-10-27 14:35:02,29.6,-7.6,37.3,32.6,2.1,111
2009-10-27 14:40:02,30.4,-7.6,38.0,32.6,2.3,112
2009-10-27 14:45:02,30.6,-8.3,38.9,32.6,2.3,111
2009-10-27 14:50:02,30.3,-8.2,38.5,32.6,2.3,112
2009-10-27 14:55:02,29.8,-7.2,37.1,32.6,2.2,112
2009-10-27 15:00:02,29.8,-5.8,35.6,32.6,2.1,111
2009-10-27 15:05:02,29.6,-5.2,34.7,32.6,2.1,112
2009-10-27 15:10:02,28.9,-5.5,34.4,32.6,1.8,111
2009-10-27 15:15:02,28.3,-6.4,34.7,32.6,1.5,112
2009-10-27 15:20:02,28.1,-7.6,35.7,32.6,1.4,111
2009-10-27 15:25:02,27.9,-7.0,34.9,32.6,1.3,112
2009-10-27 15:30:02,27.8,-5.5,33.3,32.6,1.2,111
2009-10-27 15:35:02,27.8,-5.5,33.3,32.6,1.1,111
2009-10-27 15:40:02,27.6,-6.5,34.1,32.5,1.1,112
2009-10-27 15:45:02,27.4,-7.5,34.9,32.5,1.2,112
2009-10-27 15:50:02,27.0,-8.0,35.0,32.5,1.5,111
2009-10-27 15:55:02,26.1,-7.9,34.0,32.4,1.9,112
2009-10-27 16:00:02,26.3,-7.9,34.3,32.4,2.3,111
2009-10-27 16:05:02,26.1,-8.7,34.8,32.4,2.3,112
2009-10-27 16:10:02,25.9,-9.4,35.3,32.3,2.3,112
2009-10-27 16:15:02,25.8,-9.6,35.4,32.4,2.3,111
2009-10-27 16:20:02,25.7,-9.8,35.5,32.3,2.3,112
2009-10-27 16:25:02,25.5,-9.3,34.8,32.2,2.3,112
2009-10-27 16:30:02,25.3,-9.0,34.3,32.1,2.3,112
2009-10-27 16:35:02,25.3,-8.5,33.8,32.0,2.3,111
2009-10-27 16:40:02,25.1,-8.4,33.6,31.8,2.3,112
2009-10-27 16:45:02,24.6,-8.3,32.9,31.4,2.3,111
2009-10-27 16:50:02,25.0,-8.1,33.2,31.0,2.3,112
2009-10-27 16:55:02,24.9,-8.2,33.2,30.3,2.3,111
2009-10-27 17:00:02,24.9,-8.3,33.1,29.0,2.3,112
2009-10-27 17:05:02,24.8,-9.0,33.9,26.4,2.3,112
2009-10-27 17:10:02,24.8,-9.1,33.8,22.2,2.3,112
2009-10-27 17:15:02,24.2,-8.9,33.1,16.6,2.3,111
2009-10-27 17:20:02,24.6,-8.9,33.5,10.5,2.3,112
2009-10-27 17:25:02,24.6,-8.4,33.0,5.8,2.3,112
2009-10-27 17:30:02,24.6,-8.2,32.8,2.9,2.3,111
2009-10-27 17:35:02,24.1,-8.1,32.1,1.4,2.3,112
2009-10-27 17:40:02,24.5,-8.2,32.7,0.7,2.3,112
2009-10-27 17:45:02,24.5,-8.2,32.7,0.3,2.3,111
2009-10-27 17:50:02,24.4,-8.3,32.7,0.2,2.3,112
2009-10-27 17:55:02,24.4,-8.0,32.4,0.1,2.3,111
2009-10-27 18:00:02,23.9,-6.7,30.6,0.1,2.3,112
2009-10-27 18:05:02,24.3,-5.5,29.8,0.1,2.3,111
2009-10-27 18:10:02,24.3,-4.4,28.8,0.1,2.3,112
2009-10-27 18:15:02,24.4,-4.1,28.5,0.1,2.3,112
2009-10-27 18:20:02,24.4,-4.3,28.7,0.1,2.3,112
2009-10-27 18:25:02,24.4,-4.5,29.0,0.1,2.3,112
2009-10-27 18:30:02,24.5,-4.2,28.7,0.1,2.3,112
2009-10-27 18:35:02,24.6,-4.1,28.7,0.1,2.3,112
2009-10-27 18:40:02,24.7,-4.8,29.5,0.1,2.3,112
2009-10-27 18:45:02,24.8,-4.5,29.3,0.1,2.3,112
2009-10-27 18:50:02,24.8,-3.7,28.6,0.1,2.3,111
2009-10-27 18:55:02,24.8,-3.1,28.0,0.2,2.3,112
2009-10-27 19:00:02,24.8,-4.1,28.9,0.1,2.3,112
2009-10-27 19:05:02,24.8,-2.4,27.3,0.1,2.3,112
2009-10-27 19:10:02,24.9,-1.5,26.4,0.1,2.3,112
2009-10-27 19:15:02,25.0,-1.5,26.5,0.1,2.3,111
2009-10-27 19:20:02,25.0,-1.2,26.2,0.2,2.3,112
2009-10-27 19:25:02,25.0,-1.1,26.1,0.2,2.3,112
2009-10-27 19:30:02,24.9,-1.1,26.0,0.2,2.3,111
2009-10-27 19:35:02,25.0,-1.3,26.3,0.2,2.3,112
2009-10-27 19:40:02,25.0,-0.7,25.7,0.2,2.3,111
2009-10-27 19:45:02,25.0,-0.1,25.1,0.2,2.3,112
2009-10-27 19:50:02,25.0,-0.1,25.1,0.2,2.3,112
2009-10-27 19:55:02,24.9,-0.2,25.1,0.2,2.3,112
2009-10-27 20:00:02,24.9,-1.6,26.6,0.2,2.3,111
2009-10-27 20:05:02,24.9,-2.8,27.7,0.2,2.3,112
2009-10-27 20:10:02,24.9,-2.8,27.7,0.1,2.3,111
2009-10-27 20:15:02,25.0,-1.8,26.8,0.1,2.3,112
2009-10-27 20:20:02,25.0,-1.9,26.9,0.2,2.3,111
2009-10-27 20:25:02,25.0,-1.7,26.7,0.1,2.3,112
2009-10-27 20:30:02,25.0,-1.8,26.8,0.1,2.3,111
2009-10-27 20:35:02,25.1,-2.7,27.8,0.1,2.3,112
2009-10-27 20:40:02,25.1,-3.7,28.7,0.1,2.3,112
2009-10-27 20:45:02,25.1,-4.3,29.4,0.1,2.3,112
2009-10-27 20:50:02,25.1,-4.3,29.4,0.1,2.3,112
2009-10-27 20:55:02,25.0,-3.5,28.6,0.1,2.3,112
2009-10-27 21:00:02,25.1,-4.0,29.1,0.1,2.3,111
2009-10-27 21:05:02,25.1,-5.2,30.3,0.2,2.3,112
2009-10-27 21:10:02,25.1,-7.3,32.4,0.2,2.3,111
2009-10-27 21:15:02,25.1,-8.1,33.2,0.2,2.3,111
2009-10-27 21:20:02,24.6,-6.9,31.5,0.1,2.3,112
2009-10-27 21:25:02,25.0,-5.2,30.2,0.1,2.3,112
2009-10-27 21:30:02,25.0,-4.9,29.9,0.1,2.3,111
2009-10-27 21:35:02,25.0,-4.8,29.8,0.1,2.3,112
2009-10-27 21:40:02,24.9,-5.0,30.0,0.1,2.3,111
2009-10-27 21:45:02,24.8,-4.4,29.3,0.1,2.3,112
2009-10-27 21:50:02,24.7,-4.8,29.5,0.1,2.3,111
2009-10-27 21:55:02,24.7,-4.7,29.4,0.1,2.3,112
2009-10-27 22:00:02,24.8,-4.4,29.2,0.1,2.3,112
2009-10-27 22:05:02,24.8,-4.8,29.7,0.1,2.3,112
2009-10-27 22:10:02,24.8,-5.5,30.3,0.1,2.3,111
2009-10-27 22:15:02,24.8,-6.2,31.0,0.1,2.3,112
2009-10-27 22:20:02,24.8,-6.7,31.5,0.1,2.3,111
2009-10-27 22:25:02,24.7,-6.4,31.1,0.1,2.3,112
2009-10-27 22:30:02,24.7,-5.9,30.5,0.1,2.3,111
2009-10-27 22:35:02,24.8,-5.7,30.5,0.1,2.3,112
2009-10-27 22:40:02,24.7,-5.3,30.0,0.1,2.3,111
2009-10-27 22:45:02,24.7,-5.4,30.1,0.1,2.3,111
2009-10-27 22:50:02,24.6,-6.5,31.1,0.1,2.3,112
2009-10-27 22:55:02,24.6,-5.7,30.3,0.1,2.3,111
2009-10-27 23:00:02,24.5,-5.1,29.6,0.1,2.3,112
2009-10-27 23:05:02,24.5,-6.1,30.6,0.0,2.3,111
2009-10-27 23:10:02,24.5,-7.4,31.9,0.0,2.3,112
2009-10-27 23:15:02,24.5,-8.5,33.0,0.0,2.3,112
2009-10-27 23:20:02,24.6,-8.6,33.2,0.0,2.3,111
2009-10-27 23:25:02,24.6,-7.0,31.7,0.0,2.3,112
2009-10-27 23:30:02,24.7,-6.0,30.6,0.0,2.3,111
2009-10-27 23:35:02,24.5,-5.3,29.8,0.0,2.3,112
2009-10-27 23:40:02,24.5,-5.3,29.8,0.0,2.3,111
2009-10-27 23:45:02,24.5,-5.1,29.6,0.0,2.3,112
2009-10-27 23:50:02,24.6,-4.2,28.7,0.0,2.3,112
2009-10-27 23:55:02,24.5,-3.9,28.4,0.0,2.3,111
